FW3835 Weather Reports


Display with metric or nautical units.
time (UTC)temp
F
wind
direction
speed
MPH
gust
MPH
rain 1hr
in
rain 24hr
in
rain mn
in
humidity
%
barometer
mb
20260831060034 66 180 1.0 7.0 0.06 0.07 0.06 81 1007.2
20260831054515 66 103 2.0 9.0 0.06 0.07 0.06 80 1007.4
20260831053017 66 49 3.0 9.0 0.03 0.04 0.03 79 1007.2
20260831051526 66 76 4.0 13.0 0.00 0.01 0.00 77 1007.6
20260831050029 67 95 2.0 14.0 0.00 0.01 0.00 75 1007.6
20260831044541 67 123 5.0 13.0 0.00 0.01 0.01 73 1007.6
20260831043014 67 84 3.0 11.0 0.00 0.01 0.01 72 1007.8
20260831041519 67 71 4.0 11.0 0.00 0.01 0.01 72 1008.1
20260831040030 67 98 3.0 12.0 0.00 0.01 0.01 72 1008.2
20260831034530 67 101 2.0 7.0 0.00 0.01 0.01 72 1008.6
20260831033038 67 78 4.0 10.0 0.00 0.01 0.01 71 1008.5
20260831031517 67 85 4.0 10.0 0.00 0.01 0.01 71 1008.8
20260831030023 68 124 4.0 13.0 0.00 0.01 0.01 71 1009.0
20260831024530 68 80 4.0 10.0 0.00 0.01 0.01 71 1009.6
20260831023029 68 109 5.0 12.0 0.00 0.01 0.01 70 1009.2
20260831021543 68 90 5.0 13.0 0.00 0.01 0.01 70 1008.9
20260831020016 68 148 5.0 12.0 0.00 0.01 0.01 69 1008.8
20260831014524 68 133 2.0 10.0 0.00 0.01 0.01 69 1008.4
20260831013028 68 103 6.0 11.0 0.00 0.01 0.01 69 1008.3
20260831011541 68 71 4.0 8.0 0.00 0.01 0.01 69 1008.7
20260831010014 68 106 4.0 11.0 0.00 0.01 0.01 68 1008.9
20260831004520 68 111 5.0 14.0 0.00 0.01 0.01 68 1008.6
20260831003026 68 105 4.0 10.0 0.00 0.01 0.01 68 1008.3
20260831001536 69 44 6.0 13.0 0.00 0.01 0.01 68 1008.3
20260831000033 69 71 5.0 10.0 0.00 0.01 0.01 68 1008.6
20260830234522 69 116 6.0 11.0 0.00 0.01 0.01 68 1008.6
20260830233026 69 112 6.0 13.0 0.00 0.01 0.01 68 1008.6
20260830231527 69 87 5.0 11.0 0.00 0.01 0.01 68 1008.8
20260830230034 69 132 4.0 12.0 0.00 0.01 0.01 68 1009.2
20260830224533 69 94 3.0 14.0 0.00 0.01 0.01 68 1009.4
20260830223022 69 102 5.0 12.0 0.00 0.01 0.01 68 1009.4
20260830221527 69 88 6.0 11.0 0.00 0.01 0.01 68 1009.7
20260830220036 69 134 5.0 11.0 0.00 0.01 0.01 68 1009.7
20260830214533 69 92 6.0 13.0 0.00 0.01 0.01 68 1010.0
20260830213038 69 82 5.0 10.0 0.00 0.01 0.01 68 1010.6
20260830211521 69 130 3.0 15.0 0.00 0.01 0.01 68 1010.8
20260830210029 68 131 5.0 12.0 0.00 0.01 0.01 68 1010.9
20260830204536 69 92 4.0 11.0 0.00 0.01 0.01 69 1011.1
20260830203012 69 85 3.0 13.0 0.00 0.01 0.01 69 1011.2
20260830201517 69 80 3.0 16.0 0.00 0.01 0.01 69 1011.3
20260830200023 68 80 4.0 14.0 0.00 0.01 0.01 69 1011.2
20260830194528 69 28 2.0 13.0 0.00 0.01 0.01 69 1011.2
20260830193032 69 88 4.0 14.0 0.00 0.01 0.01 68 1011.2
20260830191516 69 258 3.0 11.0 0.00 0.01 0.01 68 1011.3
20260830190023 69 153 4.0 13.0 0.00 0.01 0.01 68 1011.2
20260830184527 69 67 5.0 13.0 0.00 0.01 0.01 69 1011.1
20260830183033 68 76 5.0 13.0 0.00 0.01 0.01 69 1011.2
20260830181530 68 61 4.0 15.0 0.00 0.01 0.01 69 1011.2
20260830180016 68 82 4.0 12.0 0.00 0.01 0.01 69 1011.0
20260830174546 68 90 4.0 11.0 0.00 0.01 0.01 70 1011.1
20260830173033 67 155 6.0 14.0 0.00 0.01 0.01 70 1011.1
20260830171532 67 82 4.0 12.0 0.00 0.01 0.01 73 1011.2
20260830170034 66 116 5.0 12.0 0.00 0.01 0.01 74 1011.1
20260830164526 66 111 2.0 10.0 0.00 0.01 0.01 77 1011.2
20260830163033 65 96 5.0 14.0 0.00 0.01 0.01 78 1011.3
20260830161529 65 124 6.0 13.0 0.00 0.01 0.01 80 1011.2
20260830160035 65 78 3.0 12.0 0.00 0.01 0.01 81 1011.4
20260830154537 65 103 5.0 10.0 0.00 0.01 0.01 80 1011.5
20260830153031 65 126 5.0 14.0 0.00 0.01 0.01 81 1011.5
20260830151538 65 121 4.0 11.0 0.00 0.01 0.01 81 1011.6
20260830150033 64 93 4.0 10.0 0.00 0.01 0.01 81 1011.9
20260830144535 64 117 4.0 9.0 0.01 0.01 0.01 81 1012.0
20260830143036 64 117 3.0 8.0 0.01 0.01 0.01 81 1012.2
20260830141524 64 92 2.0 7.0 0.01 0.01 0.01 81 1012.1
20260830140033 64 136 2.0 9.0 0.01 0.01 0.01 81 1011.8
20260830134530 64 118 2.0 9.0 0.00 0.00 0.00 81 1011.5
20260830133033 64 126 4.0 8.0 0.00 0.00 0.00 80 1011.5
20260830131538 64 132 3.0 9.0 0.00 0.00 0.00 80 1011.5
20260830130028 64 131 3.0 13.0 0.00 0.00 0.00 80 1011.6
20260830124538 64 107 2.0 8.0 0.00 0.00 0.00 80 1011.5
20260830123035 64 82 3.0 9.0 0.00 0.00 0.00 80 1011.4
20260830121534 64 103 1.0 9.0 0.00 0.00 0.00 80 1011.6
20260830120037 64 114 2.0 7.0 0.00 0.00 0.00 81 1011.8
20260830114528 64 113 2.0 8.0 0.00 0.00 0.00 80 1011.8
20260830113008 64 92 1.0 7.0 0.00 0.00 0.00 80 1011.8
20260830111516 64 94 2.0 7.0 0.00 0.00 0.00 81 1011.7
20260830110035 64 126 3.0 7.0 0.00 0.00 0.00 81 1011.5
20260830104516 64 134 1.0 7.0 0.00 0.00 0.00 81 1011.7
20260830103009 64 90 2.0 8.0 0.00 0.00 0.00 81 1011.5
20260830101519 64 90 2.0 4.0 0.00 0.00 0.00 81 1011.6
20260830100015 64 121 2.0 7.0 0.00 0.00 0.00 81 1011.7
20260830094520 64 120 2.0 6.0 0.00 0.00 0.00 80 1011.5
20260830093004 64 87 1.0 4.0 0.00 0.00 0.00 80 1011.8
20260830091512 64 90 2.0 5.0 0.00 0.00 0.00 81 1011.7
20260830090017 64 111 1.0 6.0 0.00 0.00 0.00 80 1011.4
20260830084518 64 109 1.0 4.0 0.00 0.00 0.00 80 1011.3
20260830083025 64 101 1.0 6.0 0.00 0.00 0.00 80 1011.2
20260830081507 65 85 2.0 6.0 0.00 0.00 0.00 81 1011.2
20260830080010 64 153 2.0 8.0 0.00 0.00 0.00 81 1011.2
20260830074518 64 138 2.0 7.0 0.00 0.00 0.00 81 1011.2
20260830073023 64 178 0.0 8.0 0.00 0.00 0.00 80 1011.3
20260830071544 64 119 2.0 6.0 0.00 0.00 0.00 80 1011.6
20260830070019 64 128 0.0 3.0 0.00 0.00 0.00 79 1011.8
20260830064512 64 130 2.0 6.0 0.00 0.00 0.00 78 1011.7
20260830063019 65 105 3.0 6.0 0.00 0.00 0.00 77 1011.7
20260830061529 65 90 1.0 8.0 0.00 0.00 0.00 75 1011.7